KAL041 RKSI-KSEA

Flight info

Callsign KAL041
Flight time N/A
Altitude 35000
Route EGOBA2E EGOBA Y697 LANAT Y51 SAMON Y142 GTC Y512 OATIS R580 OLCOT G215 DUT DCT 54N160W 54N150W 54N140W DCT LINGO DCT TOU MARNR8
Aircraft A359/H-SDE2E3GHIJ1J3J4J5LM1ORWXY/LB1D1

Departure

Time 2026-05-04 14:57
Airport Incheon International Airport (RKSI)

Arrival

Time N/A
Airport Seattle–Tacoma International Airport (KSEA)
Time Latitude Longitude Altitude Speed Heading
2026-05-04 14:34 37.46305 126.43459 39 ft 0 kts 235°
2026-05-04 14:45 37.46313 126.43473 37 ft 4 kts 235°
2026-05-04 14:45 37.46329 126.43501 36 ft 4 kts 235°
2026-05-04 14:45 37.46342 126.43526 36 ft 4 kts 230°
2026-05-04 14:45 37.46361 126.43542 36 ft 4 kts 172°
2026-05-04 14:46 37.46384 126.43529 36 ft 4 kts 145°
2026-05-04 14:46 37.46395 126.43520 35 ft 1 kts 147°
2026-05-04 14:46 37.46396 126.43519 35 ft 0 kts 147°
2026-05-04 14:48 37.46394 126.43521 35 ft 1 kts 147°
2026-05-04 14:48 37.46383 126.43531 36 ft 4 kts 147°
2026-05-04 14:49 37.46348 126.43560 35 ft 8 kts 145°
2026-05-04 14:49 37.46293 126.43608 38 ft 11 kts 145°
2026-05-04 14:49 37.46227 126.43667 39 ft 13 kts 145°
2026-05-04 14:49 37.46166 126.43723 39 ft 11 kts 137°
2026-05-04 14:50 37.46163 126.43808 39 ft 10 kts 67°
2026-05-04 14:50 37.46204 126.43888 39 ft 12 kts 55°
2026-05-04 14:50 37.46254 126.43976 39 ft 13 kts 54°
2026-05-04 14:50 37.46309 126.44074 39 ft 14 kts 54°
2026-05-04 14:51 37.46369 126.44180 39 ft 15 kts 54°
2026-05-04 14:51 37.46433 126.44294 39 ft 16 kts 54°
2026-05-04 14:51 37.46501 126.44413 39 ft 17 kts 54°
2026-05-04 14:51 37.46564 126.44543 39 ft 18 kts 58°
2026-05-04 14:52 37.46550 126.44667 39 ft 16 kts 143°
2026-05-04 14:52 37.46458 126.44747 39 ft 16 kts 145°
2026-05-04 14:52 37.46362 126.44832 39 ft 17 kts 145°
2026-05-04 14:52 37.46262 126.44921 39 ft 18 kts 145°
2026-05-04 14:53 37.46159 126.45013 39 ft 18 kts 144°
2026-05-04 14:53 37.46054 126.45107 39 ft 19 kts 144°
2026-05-04 14:53 37.45944 126.45205 39 ft 19 kts 144°
2026-05-04 14:53 37.45832 126.45304 39 ft 20 kts 144°
2026-05-04 14:54 37.45717 126.45407 39 ft 20 kts 144°
2026-05-04 14:54 37.45600 126.45511 39 ft 21 kts 145°
2026-05-04 14:54 37.45482 126.45616 39 ft 19 kts 144°
2026-05-04 14:54 37.45374 126.45713 39 ft 19 kts 144°
2026-05-04 14:55 37.45299 126.45824 39 ft 15 kts 88°
2026-05-04 14:55 37.45342 126.45923 39 ft 9 kts 55°
2026-05-04 14:55 37.45382 126.45996 39 ft 11 kts 55°
2026-05-04 14:55 37.45437 126.46057 39 ft 10 kts
2026-05-04 14:56 37.45488 126.46029 39 ft 0 kts 325°
2026-05-04 14:56 37.45587 126.45942 39 ft 48 kts 324°
2026-05-04 14:56 37.46029 126.45546 39 ft 106 kts 324°
2026-05-04 14:56 37.46494 126.45133 39 ft 140 kts 324°
2026-05-04 14:57 37.47408 126.44320 161 ft 171 kts 325°
2026-05-04 14:57 37.48345 126.43528 908 ft 158 kts 326°
2026-05-04 14:57 37.49273 126.42806 1502 ft 155 kts 326°
2026-05-04 14:57 37.50183 126.42090 2058 ft 154 kts 323°
2026-05-04 14:58 37.51083 126.41351 2566 ft 154 kts 323°
2026-05-04 14:58 37.51978 126.40607 3007 ft 154 kts 323°
2026-05-04 14:58 37.52897 126.39840 3293 ft 165 kts 323°
2026-05-04 14:58 37.53901 126.38996 3528 ft 182 kts 323°
2026-05-04 14:59 37.55004 126.38071 3754 ft 200 kts 323°
2026-05-04 14:59 37.56296 126.37196 3954 ft 222 kts 337°
2026-05-04 14:59 37.59384 126.36058 4964 ft 237 kts 342°
2026-05-04 15:00 37.60988 126.35529 5558 ft 241 kts 345°
2026-05-04 15:00 37.62677 126.35465 6139 ft 248 kts
2026-05-04 15:00 37.64242 126.36412 6694 ft 259 kts 39°
2026-05-04 15:01 37.65963 126.40626 7636 ft 282 kts 70°
2026-05-04 15:01 37.66556 126.42966 8312 ft 286 kts 74°
2026-05-04 15:01 37.66718 126.45478 8985 ft 291 kts 98°
2026-05-04 15:01 37.66176 126.47939 9711 ft 293 kts 110°
2026-05-04 15:02 37.65453 126.50368 10313 ft 301 kts 111°
2026-05-04 15:02 37.64682 126.52900 10615 ft 318 kts 112°
2026-05-04 15:02 37.63523 126.55354 10897 ft 335 kts 132°
2026-05-04 15:02 37.61829 126.57455 11193 ft 350 kts 139°
2026-05-04 15:03 37.59978 126.59536 11518 ft 363 kts 139°
2026-05-04 15:03 37.58064 126.61687 12030 ft 370 kts 139°
2026-05-04 15:03 37.56137 126.63868 12644 ft 374 kts 139°
2026-05-04 15:03 37.54194 126.66075 13248 ft 378 kts 139°
2026-05-04 15:04 37.52230 126.68310 13863 ft 382 kts 139°
2026-05-04 15:04 37.50247 126.70568 14415 ft 385 kts 139°
2026-05-04 15:04 37.48246 126.72848 14952 ft 389 kts 138°
2026-05-04 15:04 37.46231 126.75142 15517 ft 393 kts 138°
2026-05-04 15:05 37.44206 126.77473 16044 ft 397 kts 136°
2026-05-04 15:05 37.42460 126.80180 16569 ft 401 kts 120°
2026-05-04 15:05 37.41476 126.83453 17107 ft 403 kts 99°
2026-05-04 15:05 37.41274 126.86962 17674 ft 404 kts 89°
2026-05-04 15:06 37.41297 126.90511 18257 ft 407 kts 88°
2026-05-04 15:06 37.41551 126.94062 18760 ft 409 kts 79°
2026-05-04 15:06 37.42103 126.97590 19282 ft 412 kts 77°
2026-05-04 15:07 37.43305 127.04688 20370 ft 417 kts 77°
2026-05-04 15:07 37.43902 127.08272 20898 ft 420 kts 77°
2026-05-04 15:07 37.44499 127.11878 21436 ft 423 kts 77°
2026-05-04 15:07 37.45098 127.15517 21931 ft 427 kts 77°
2026-05-04 15:08 37.45700 127.19192 22463 ft 429 kts 77°
2026-05-04 15:08 37.46301 127.22879 22963 ft 432 kts 77°
2026-05-04 15:08 37.46909 127.26612 23471 ft 435 kts 77°
2026-05-04 15:08 37.47519 127.30365 23928 ft 439 kts 77°
2026-05-04 15:09 37.48131 127.34139 24332 ft 442 kts 77°
2026-05-04 15:09 37.48746 127.37941 24726 ft 446 kts 77°
2026-05-04 15:09 37.49369 127.41771 25121 ft 449 kts 77°
2026-05-04 15:10 37.50610 127.49482 25940 ft 455 kts 77°
2026-05-04 15:10 37.51237 127.53408 26308 ft 459 kts 77°
2026-05-04 15:10 37.52503 127.61346 27083 ft 465 kts 77°
2026-05-04 15:11 37.53139 127.65346 27461 ft 468 kts 77°
2026-05-04 15:11 37.53780 127.69386 27840 ft 471 kts 77°
2026-05-04 15:11 37.54423 127.73452 28207 ft 475 kts 77°
2026-05-04 15:11 37.55073 127.77555 28496 ft 480 kts 77°
2026-05-04 15:12 37.55727 127.81691 28859 ft 483 kts 77°
2026-05-04 15:12 37.56381 127.85839 29312 ft 483 kts 77°
2026-05-04 15:12 37.57037 127.90009 29712 ft 486 kts 77°
2026-05-04 15:12 37.57694 127.94198 30025 ft 489 kts 77°
2026-05-04 15:13 37.58355 127.98424 30266 ft 493 kts 77°
2026-05-04 15:13 37.59021 128.02692 30446 ft 498 kts 77°
2026-05-04 15:13 37.59689 128.06985 30688 ft 501 kts 77°
2026-05-04 15:13 37.60361 128.11317 30928 ft 504 kts 77°
2026-05-04 15:14 37.61036 128.15667 31149 ft 507 kts 77°
2026-05-04 15:14 37.61713 128.20034 31443 ft 508 kts 77°
2026-05-04 15:14 37.62386 128.24407 31673 ft 511 kts 78°
2026-05-04 15:14 37.63057 128.28779 31821 ft 515 kts 78°
2026-05-04 15:15 37.63737 128.33225 32061 ft 516 kts 78°
2026-05-04 15:15 37.64415 128.37671 32349 ft 517 kts 78°
2026-05-04 15:15 37.65094 128.42137 32582 ft 519 kts 78°
2026-05-04 15:16 37.66451 128.51088 33099 ft 520 kts 78°
2026-05-04 15:16 37.67130 128.55579 33398 ft 521 kts 78°
2026-05-04 15:16 37.68481 128.64580 33879 ft 523 kts 79°
2026-05-04 15:17 37.68864 128.69148 34009 ft 526 kts 88°
2026-05-04 15:17 37.67931 128.78314 34306 ft 527 kts 109°
2026-05-04 15:17 37.66567 128.82576 34550 ft 524 kts 120°
2026-05-04 15:18 37.64820 128.86611 34724 ft 523 kts 122°
2026-05-04 15:18 37.62969 128.90554 34906 ft 524 kts 124°
2026-05-04 15:19 37.57202 129.02334 35069 ft 533 kts 124°
2026-05-04 15:19 37.51396 129.14291 35061 ft 533 kts 124°
2026-05-04 15:20 37.47536 129.22278 35059 ft 535 kts 124°
2026-05-04 15:20 37.43669 129.30271 35059 ft 535 kts 124°
2026-05-04 15:21 37.39797 129.38265 35058 ft 535 kts 125°
2026-05-04 15:22 37.33946 129.50277 35057 ft 537 kts 125°
2026-05-04 15:22 37.28076 129.62294 35058 ft 538 kts 125°
2026-05-04 15:23 37.24176 129.70255 35059 ft 540 kts 126°
2026-05-04 15:23 37.20235 129.78282 35063 ft 540 kts 126°
2026-05-04 15:24 37.12327 129.94338 35070 ft 542 kts 126°
2026-05-04 15:25 37.08348 130.02375 35070 ft 542 kts 126°
2026-05-04 15:26 37.02376 130.14407 35073 ft 543 kts 127°
2026-05-04 15:26 36.96406 130.26398 35071 ft 543 kts 127°
2026-05-04 15:27 36.90398 130.38420 35081 ft 543 kts 127°
2026-05-04 15:28 36.84381 130.50419 35078 ft 543 kts 127°
2026-05-04 15:29 36.78349 130.62402 35082 ft 543 kts 128°
2026-05-04 15:30 36.64256 130.90248 35089 ft 543 kts 128°
2026-05-04 15:31 36.58175 131.02187 35090 ft 544 kts 128°
2026-05-04 15:32 36.48044 131.21992 35089 ft 544 kts 129°
2026-05-04 15:34 36.38354 131.42267 35094 ft 558 kts 114°
2026-05-04 15:34 36.37383 131.46954 35094 ft 565 kts 102°
2026-05-04 15:34 36.36764 131.56721 35084 ft 569 kts 95°
2026-05-04 15:35 36.36398 131.71501 35097 ft 573 kts 94°
2026-05-04 15:36 36.35973 131.86323 35094 ft 574 kts 95°
2026-05-04 15:36 36.35640 131.96236 35094 ft 575 kts 95°
2026-05-04 15:37 36.35297 132.06093 35097 ft 577 kts 96°
2026-05-04 15:37 36.34942 132.16090 35094 ft 579 kts 96°
2026-05-04 15:38 36.34583 132.26075 35097 ft 580 kts 96°
2026-05-04 15:38 36.34214 132.36075 35095 ft 580 kts 96°
2026-05-04 15:39 36.33838 132.46064 35096 ft 581 kts 96°
2026-05-04 15:40 36.33253 132.61137 35096 ft 584 kts 97°
2026-05-04 15:40 36.32852 132.71216 35102 ft 588 kts 97°
2026-05-04 15:41 36.32437 132.81377 35100 ft 591 kts 97°
2026-05-04 15:41 36.32018 132.91509 35099 ft 591 kts 97°
2026-05-04 15:42 36.31589 133.01684 35102 ft 591 kts 97°
2026-05-04 15:42 36.31149 133.11854 35099 ft 590 kts 98°
2026-05-04 15:43 36.30778 133.20293 35099 ft 590 kts 98°
2026-05-04 15:43 36.30324 133.30466 35089 ft 590 kts 98°
2026-05-04 15:44 36.29777 133.42390 35102 ft 594 kts 98°
2026-05-04 15:44 36.29303 133.52550 35104 ft 594 kts 98°
2026-05-04 15:45 36.28900 133.61061 35105 ft 594 kts 98°
2026-05-04 15:45 36.28406 133.71306 35105 ft 598 kts 99°
2026-05-04 15:46 36.27900 133.81614 35102 ft 600 kts 99°
2026-05-04 15:46 36.27385 133.91936 35102 ft 600 kts 99°
2026-05-04 15:47 36.26861 134.02261 35089 ft 600 kts 100°
2026-05-04 15:47 36.26321 134.12624 35104 ft 604 kts 99°
2026-05-04 15:48 36.25772 134.23023 35101 ft 605 kts 99°
2026-05-04 15:48 36.24939 134.38628 35091 ft 605 kts 100°
2026-05-04 15:49 36.24989 134.49105 35116 ft 617 kts 83°
2026-05-04 15:49 36.26055 134.54197 35107 ft 620 kts 69°
2026-05-04 15:49 36.27726 134.59124 35104 ft 620 kts 65°
2026-05-04 15:50 36.31476 134.68771 35099 ft 621 kts 62°
2026-05-04 15:50 36.35382 134.78315 35101 ft 621 kts 62°
2026-05-04 15:51 36.39252 134.87908 35099 ft 621 kts 62°
2026-05-04 15:51 36.43066 134.97546 35099 ft 621 kts 63°
2026-05-04 15:52 36.46835 135.07147 35099 ft 622 kts 63°
2026-05-04 15:52 36.50622 135.16818 35112 ft 622 kts 62°
2026-05-04 15:53 36.54396 135.26469 35096 ft 620 kts 62°
2026-05-04 15:53 36.58158 135.36115 35097 ft 620 kts 63°
2026-05-04 15:54 36.61913 135.45772 35094 ft 620 kts 63°
2026-05-04 15:54 36.65664 135.55447 35095 ft 620 kts 63°
2026-05-04 15:55 36.69402 135.65123 35095 ft 620 kts 63°
2026-05-04 15:55 36.73112 135.74752 35089 ft 620 kts 63°
2026-05-04 15:56 36.76833 135.84442 35089 ft 621 kts 63°
2026-05-04 15:56 36.80558 135.94169 35088 ft 621 kts 63°
2026-05-04 15:57 36.84279 136.03919 35089 ft 622 kts 63°
2026-05-04 15:57 36.87991 136.13675 35089 ft 622 kts 63°
2026-05-04 15:58 36.91694 136.23439 35086 ft 621 kts 63°
2026-05-04 15:58 36.95386 136.33203 35091 ft 621 kts 63°
2026-05-04 15:59 36.99070 136.42978 35089 ft 620 kts 63°
2026-05-04 15:59 37.02718 136.52686 35089 ft 620 kts 63°
2026-05-04 16:00 37.06373 136.62442 35085 ft 619 kts 63°
2026-05-04 16:00 37.10023 136.72218 35083 ft 619 kts 64°
2026-05-04 16:01 37.13669 136.82010 35083 ft 620 kts 64°
2026-05-04 16:01 37.17305 136.91807 35084 ft 620 kts 64°
2026-05-04 16:02 37.20934 137.01618 35089 ft 619 kts 64°
2026-05-04 16:03 37.26349 137.16317 35081 ft 619 kts 64°
2026-05-04 16:03 37.29948 137.26121 35073 ft 618 kts 64°
2026-05-04 16:04 37.33533 137.35920 35070 ft 617 kts 64°
2026-05-04 16:04 37.38896 137.50640 35072 ft 617 kts 64°
2026-05-04 16:05 37.42462 137.60464 35073 ft 617 kts 64°
2026-05-04 16:06 37.47770 137.75151 35065 ft 617 kts 65°
2026-05-04 16:07 37.54854 137.94864 35054 ft 617 kts 65°
2026-05-04 16:08 37.61900 138.14597 35048 ft 616 kts 65°
2026-05-04 16:09 37.70658 138.39307 35043 ft 621 kts 66°
2026-05-04 16:10 37.77679 138.59257 35041 ft 621 kts 66°
2026-05-04 16:11 37.84674 138.79262 35044 ft 623 kts 66°
2026-05-04 16:12 37.95012 139.09384 35056 ft 621 kts 74°
2026-05-04 16:13 37.96789 139.20009 35055 ft 615 kts 85°
2026-05-04 16:13 37.97991 139.30738 35021 ft 614 kts 87°
2026-05-04 16:14 38.00153 139.52224 34970 ft 613 kts 88°
2026-05-04 16:16 38.02924 139.79118 34987 ft 614 kts 88°
2026-05-04 16:17 38.05616 140.05884 34966 ft 613 kts 89°
2026-05-04 16:18 38.07729 140.27350 34944 ft 611 kts 89°
2026-05-04 16:19 38.10308 140.54116 34922 ft 612 kts 88°
2026-05-04 16:20 38.12828 140.80915 34855 ft 614 kts 89°
2026-05-04 16:21 38.13268 140.97001 34856 ft 597 kts 105°
2026-05-04 16:22 38.12235 141.07463 34864 ft 595 kts 107°
2026-05-04 16:23 38.08600 141.38506 34895 ft 594 kts 108°
2026-05-04 16:25 38.04969 141.69633 34883 ft 594 kts 108°
2026-05-04 16:26 38.00639 142.05812 34850 ft 590 kts 109°
2026-05-04 16:28 37.97504 142.31364 34829 ft 587 kts 110°
2026-05-04 16:29 37.93023 142.67057 34856 ft 585 kts 111°
2026-05-04 16:31 37.89775 142.92412 34863 ft 584 kts 111°
2026-05-04 16:32 37.86017 143.21201 34859 ft 584 kts 111°
2026-05-04 16:33 37.83457 143.41431 34854 ft 594 kts 104°
2026-05-04 16:34 37.84357 143.52049 34860 ft 625 kts 77°
2026-05-04 16:34 37.86091 143.57128 34846 ft 632 kts 62°
2026-05-04 16:35 37.95001 143.69307 34849 ft 632 kts 37°
2026-05-04 16:35 38.05168 143.79984 34839 ft 633 kts 37°
2026-05-04 16:36 38.15188 143.90928 34833 ft 634 kts 38°
2026-05-04 16:37 38.25134 144.02056 34827 ft 635 kts 38°
2026-05-04 16:38 38.38409 144.16918 34807 ft 638 kts 38°
2026-05-04 16:39 38.55062 144.35647 34802 ft 638 kts 38°
2026-05-04 16:40 38.68387 144.50724 34764 ft 640 kts 38°
2026-05-04 16:41 38.84934 144.69638 34791 ft 640 kts 39°
2026-05-04 16:43 39.01536 144.88741 34749 ft 640 kts 39°
2026-05-04 16:43 39.11465 145.00226 34744 ft 640 kts 39°
2026-05-04 16:45 39.31338 145.23347 34725 ft 642 kts 39°
2026-05-04 16:46 39.47821 145.42668 34746 ft 641 kts 40°
2026-05-04 16:47 39.61058 145.58275 34710 ft 644 kts 40°
2026-05-04 16:48 39.74277 145.73949 34696 ft 642 kts 40°
2026-05-04 16:49 39.87451 145.89653 34684 ft 641 kts 40°
2026-05-04 16:50 40.00540 146.05341 34665 ft 641 kts 40°
2026-05-04 16:51 40.10375 146.17186 34692 ft 641 kts 40°
2026-05-04 16:52 40.23479 146.33041 34651 ft 642 kts 41°
2026-05-04 16:53 40.33264 146.44940 34645 ft 642 kts 41°
2026-05-04 16:54 40.46340 146.60917 34629 ft 643 kts 41°
2026-05-04 16:55 40.65982 146.85086 34607 ft 644 kts 41°
2026-05-04 16:56 40.82296 147.05315 34596 ft 645 kts 42°
2026-05-04 16:57 40.92097 147.17538 34581 ft 645 kts 42°
2026-05-04 16:58 41.05092 147.33824 34556 ft 645 kts 42°
2026-05-04 17:00 41.24635 147.58495 34557 ft 646 kts 43°
2026-05-04 17:01 41.40891 147.79179 34559 ft 646 kts 43°
2026-05-04 17:02 41.53839 147.95763 34526 ft 648 kts 43°
2026-05-04 17:03 41.63581 148.08305 34535 ft 647 kts 43°
2026-05-04 17:03 41.73295 148.20866 34542 ft 647 kts 43°
2026-05-04 17:04 41.86158 148.37822 34520 ft 649 kts 44°
2026-05-04 17:05 41.98923 148.54842 34493 ft 648 kts 44°
2026-05-04 17:06 42.08518 148.67664 34515 ft 648 kts 45°
2026-05-04 17:07 42.17025 148.79084 34500 ft 649 kts 45°
2026-05-04 17:07 42.24481 148.89133 34502 ft 647 kts 45°
2026-05-04 17:08 42.34032 149.02059 34489 ft 647 kts 45°
2026-05-04 17:09 42.40373 149.10672 34517 ft 647 kts 45°
2026-05-04 17:09 42.46694 149.19284 34465 ft 647 kts 45°
2026-05-04 17:10 42.62531 149.40977 34456 ft 647 kts 45°
2026-05-04 17:11 42.68850 149.49681 34473 ft 646 kts 45°
2026-05-04 17:12 42.78315 149.62765 34447 ft 647 kts 46°
2026-05-04 17:13 42.94055 149.84661 34436 ft 646 kts 46°
2026-05-04 17:14 43.06607 150.02243 34464 ft 646 kts 46°
2026-05-04 17:15 43.15990 150.15460 34461 ft 645 kts 46°
2026-05-04 17:16 43.28435 150.33086 34457 ft 645 kts 46°
2026-05-04 17:17 43.40888 150.50832 34458 ft 645 kts 46°
2026-05-04 17:18 43.53316 150.68657 34451 ft 645 kts 46°
2026-05-04 17:19 43.64676 150.85049 34441 ft 644 kts 46°
2026-05-04 17:20 43.77026 151.02978 34474 ft 644 kts 47°
2026-05-04 17:20 43.86274 151.16480 34428 ft 644 kts 47°
2026-05-04 17:21 43.98542 151.34492 34410 ft 642 kts 47°
2026-05-04 17:22 44.04662 151.43520 34417 ft 642 kts 47°
2026-05-04 17:23 44.16881 151.61635 34406 ft 641 kts 47°
2026-05-04 17:24 44.26041 151.75292 34388 ft 643 kts 47°
2026-05-04 17:25 44.38197 151.93519 34397 ft 640 kts 47°
2026-05-04 17:26 44.50268 152.11738 34398 ft 639 kts 48°
2026-05-04 17:27 44.65345 152.34661 34377 ft 638 kts 48°
2026-05-04 17:28 44.77337 152.53031 34366 ft 637 kts 48°
2026-05-04 17:29 44.95217 152.80646 34366 ft 638 kts 49°
2026-05-04 17:31 45.10115 153.03868 34364 ft 638 kts 49°
2026-05-04 17:32 45.24965 153.27208 34339 ft 638 kts 49°
2026-05-04 17:33 45.36782 153.45924 34345 ft 637 kts 49°
2026-05-04 17:34 45.48579 153.64735 34333 ft 636 kts 49°
2026-05-04 17:35 45.63253 153.88474 34327 ft 637 kts 49°
2026-05-04 17:36 45.69076 153.98024 34324 ft 637 kts 49°
2026-05-04 17:36 45.74860 154.07526 34316 ft 637 kts 49°
2026-05-04 17:37 45.80670 154.17092 34326 ft 635 kts 49°
2026-05-04 17:37 45.86463 154.26663 34317 ft 635 kts 49°
2026-05-04 17:38 45.92242 154.36245 34337 ft 635 kts 49°
2026-05-04 17:38 45.98026 154.45869 34310 ft 636 kts 50°
2026-05-04 17:39 46.06680 154.60333 34272 ft 636 kts 50°
2026-05-04 17:39 46.12398 154.69932 34309 ft 633 kts 49°
2026-05-04 17:40 46.18120 154.79569 34309 ft 632 kts 50°
2026-05-04 17:40 46.23827 154.89216 34294 ft 632 kts 50°
2026-05-04 17:41 46.29521 154.98875 34323 ft 631 kts 50°
2026-05-04 17:41 46.35213 155.08564 34305 ft 632 kts 50°
2026-05-04 17:42 46.40914 155.18304 34268 ft 632 kts 50°
2026-05-04 17:42 46.46582 155.28021 34307 ft 630 kts 50°
2026-05-04 17:43 46.52229 155.37735 34303 ft 629 kts 50°
2026-05-04 17:43 46.57868 155.47471 34305 ft 630 kts 50°
2026-05-04 17:44 46.63497 155.57225 34313 ft 630 kts 50°
2026-05-04 17:44 46.69124 155.67009 34312 ft 630 kts 50°
2026-05-04 17:45 46.74705 155.76748 34289 ft 629 kts 50°
2026-05-04 17:45 46.80309 155.86563 34316 ft 628 kts 50°
2026-05-04 17:46 46.85893 155.96376 34309 ft 628 kts 50°
2026-05-04 17:46 46.91479 156.06229 34311 ft 628 kts 50°
2026-05-04 17:47 46.96999 156.16000 34320 ft 626 kts 50°
2026-05-04 17:47 47.02539 156.25842 34336 ft 626 kts 50°
2026-05-04 17:48 47.08074 156.35711 34315 ft 627 kts 50°
2026-05-04 17:48 47.13605 156.45608 34327 ft 627 kts 50°
2026-05-04 17:49 47.19129 156.55528 34330 ft 626 kts 50°
2026-05-04 17:49 47.24642 156.65466 34330 ft 626 kts 50°
2026-05-04 17:50 47.30148 156.75425 34339 ft 626 kts 50°
2026-05-04 17:50 47.35636 156.85388 34348 ft 626 kts 50°
2026-05-04 17:51 47.41124 156.95389 34327 ft 628 kts 50°
2026-05-04 17:51 47.46609 157.05422 34351 ft 625 kts 50°
2026-05-04 17:52 47.52061 157.15431 34355 ft 624 kts 50°
2026-05-04 17:52 47.57471 157.25397 34377 ft 624 kts 50°
2026-05-04 17:53 47.62885 157.35410 34384 ft 621 kts 50°
2026-05-04 17:53 47.68271 157.45407 34400 ft 620 kts 50°
2026-05-04 17:54 47.73650 157.55427 34438 ft 620 kts 50°
2026-05-04 17:54 47.79012 157.65453 34414 ft 619 kts 50°
2026-05-04 17:55 47.84322 157.75418 34434 ft 617 kts 50°
2026-05-04 17:55 47.89652 157.85457 34445 ft 617 kts 50°
2026-05-04 17:56 47.94968 157.95509 34467 ft 617 kts 50°
2026-05-04 17:56 48.00269 158.05567 34469 ft 616 kts 50°
2026-05-04 17:57 48.05555 158.15634 34481 ft 616 kts 50°
2026-05-04 17:57 48.10830 158.25718 34534 ft 615 kts 50°
2026-05-04 17:58 48.16071 158.35775 34498 ft 616 kts 50°
2026-05-04 17:58 48.21341 158.45925 34493 ft 616 kts 50°
2026-05-04 17:59 48.26601 158.56093 34520 ft 616 kts 51°
2026-05-04 18:00 48.34467 158.71372 34530 ft 616 kts 51°
2026-05-04 18:00 48.39698 158.81582 34550 ft 616 kts 51°
2026-05-04 18:01 48.44929 158.91831 34573 ft 616 kts 50°
2026-05-04 18:01 48.50140 159.02078 34594 ft 616 kts 50°
2026-05-04 18:02 48.57942 159.17492 34609 ft 618 kts 51°
2026-05-04 18:02 48.63144 159.27820 34622 ft 617 kts 50°
2026-05-04 18:03 48.68336 159.38168 34622 ft 617 kts 50°
2026-05-04 18:03 48.73517 159.48531 34635 ft 617 kts 50°
2026-05-04 18:04 48.78687 159.58917 34646 ft 616 kts 50°
2026-05-04 18:05 48.86368 159.74418 34673 ft 615 kts 50°
2026-05-04 18:05 48.91517 159.84856 34674 ft 618 kts 51°
2026-05-04 18:06 48.99210 160.00536 34688 ft 614 kts 50°
2026-05-04 18:06 49.04250 160.11060 34704 ft 614 kts 52°
2026-05-04 18:07 49.09177 160.21703 34710 ft 615 kts 52°
2026-05-04 18:07 49.14092 160.32361 34710 ft 613 kts 51°
2026-05-04 18:08 49.18183 160.41207 34727 ft 612 kts 51°
2026-05-04 18:08 49.23103 160.51851 34740 ft 613 kts 52°
2026-05-04 18:09 49.32912 160.73203 34747 ft 612 kts 51°
2026-05-04 18:10 49.37798 160.83909 34756 ft 612 kts 52°
2026-05-04 18:10 49.42670 160.94627 34767 ft 612 kts 51°
2026-05-04 18:11 49.47527 161.05356 34767 ft 611 kts 51°
2026-05-04 18:11 49.52372 161.16107 34776 ft 610 kts 52°
2026-05-04 18:12 49.57178 161.26899 34784 ft 610 kts 52°
2026-05-04 18:12 49.61930 161.37642 34793 ft 609 kts 52°
2026-05-04 18:13 49.66700 161.48461 34796 ft 609 kts 52°
2026-05-04 18:14 49.73839 161.64716 34807 ft 609 kts 52°
2026-05-04 18:14 49.78579 161.75566 34810 ft 608 kts 52°
2026-05-04 18:15 49.88028 161.97325 34819 ft 608 kts 52°
2026-05-04 18:16 49.92703 162.08157 34814 ft 608 kts 52°
2026-05-04 18:16 49.97399 162.19084 34834 ft 608 kts 52°
2026-05-04 18:17 50.04437 162.35545 34832 ft 609 kts 52°
2026-05-04 18:18 50.11455 162.52067 34839 ft 607 kts 52°
2026-05-04 18:18 50.16103 162.63064 34845 ft 607 kts 52°
2026-05-04 18:19 50.23054 162.79591 34860 ft 607 kts 52°
2026-05-04 18:19 50.27635 162.90546 34860 ft 606 kts 52°
2026-05-04 18:20 50.32236 163.01592 34864 ft 606 kts 52°
2026-05-04 18:20 50.36820 163.12641 34864 ft 606 kts 52°
2026-05-04 18:21 50.41397 163.23726 34867 ft 604 kts 51°
2026-05-04 18:21 50.45951 163.34800 34876 ft 603 kts 51°
2026-05-04 18:22 50.50492 163.45885 34880 ft 603 kts 52°
2026-05-04 18:22 50.55024 163.56996 34882 ft 603 kts 51°
2026-05-04 18:23 50.59532 163.68102 34889 ft 601 kts 51°
2026-05-04 18:23 50.63992 163.79133 34895 ft 601 kts 51°
2026-05-04 18:24 50.68500 163.90324 34894 ft 601 kts 51°
2026-05-04 18:24 50.72967 164.01468 34902 ft 600 kts 51°
2026-05-04 18:25 50.77391 164.12551 34907 ft 599 kts 51°
2026-05-04 18:25 50.81824 164.23704 34899 ft 599 kts 51°
2026-05-04 18:26 50.86249 164.34883 34913 ft 599 kts 51°
2026-05-04 18:26 50.90648 164.46051 34921 ft 596 kts 51°
2026-05-04 18:27 50.95047 164.57198 34926 ft 595 kts 51°
2026-05-04 18:27 50.99441 164.68330 34918 ft 596 kts 51°
2026-05-04 18:28 51.03823 164.79493 34929 ft 594 kts 50°
2026-05-04 18:28 51.08175 164.90645 34936 ft 593 kts 50°
2026-05-04 18:29 51.12509 165.01793 34933 ft 593 kts 51°
2026-05-04 18:29 51.16813 165.12914 34948 ft 593 kts 51°
2026-05-04 18:30 51.23257 165.29671 34943 ft 588 kts 50°
2026-05-04 18:31 51.27516 165.40794 34950 ft 587 kts 50°
2026-05-04 18:31 51.31769 165.51945 34949 ft 588 kts 50°
2026-05-04 18:32 51.35705 165.63476 34953 ft 599 kts 62°
2026-05-04 18:32 51.38249 165.76255 34952 ft 604 kts 68°
2026-05-04 18:33 51.40464 165.89165 34960 ft 605 kts 69°
2026-05-04 18:33 51.42627 166.02205 34961 ft 605 kts 69°
2026-05-04 18:34 51.44802 166.15226 34963 ft 605 kts 69°
2026-05-04 18:34 51.46991 166.28276 34968 ft 605 kts 69°
2026-05-04 18:35 51.49166 166.41306 34966 ft 605 kts 69°
2026-05-04 18:35 51.51325 166.54358 34976 ft 604 kts 69°
2026-05-04 18:36 51.53465 166.67407 34975 ft 604 kts 69°
2026-05-04 18:36 51.55591 166.80461 34980 ft 604 kts 69°
2026-05-04 18:37 51.57704 166.93545 34985 ft 604 kts 69°
2026-05-04 18:37 51.59780 167.06512 34985 ft 602 kts 69°
2026-05-04 18:38 51.61854 167.19550 34988 ft 601 kts 69°
2026-05-04 18:38 51.63916 167.32610 34987 ft 602 kts 69°
2026-05-04 18:39 51.65958 167.45668 34986 ft 600 kts 68°
2026-05-04 18:39 51.67978 167.58685 34993 ft 598 kts 69°
2026-05-04 18:40 51.69981 167.71685 34999 ft 598 kts 69°
2026-05-04 18:40 51.71975 167.84731 34993 ft 598 kts 68°
2026-05-04 18:41 51.73941 167.97722 34998 ft 594 kts 68°
2026-05-04 18:41 51.75886 168.10662 34997 ft 593 kts 68°
2026-05-04 18:42 51.77810 168.23550 34997 ft 594 kts 69°
2026-05-04 18:42 51.79724 168.36502 35008 ft 591 kts 68°
2026-05-04 18:43 51.81614 168.49413 35010 ft 588 kts 68°
2026-05-04 18:43 51.83489 168.62293 35011 ft 588 kts 68°
2026-05-04 18:44 51.85351 168.75186 35033 ft 589 kts 68°
2026-05-04 18:44 51.87187 168.88047 35018 ft 585 kts 68°
2026-05-04 18:45 51.89000 169.00843 35019 ft 583 kts 68°
2026-05-04 18:45 51.90804 169.13656 35024 ft 583 kts 68°
2026-05-04 18:46 51.92593 169.26478 35034 ft 582 kts 68°
2026-05-04 18:46 51.94332 169.39107 35025 ft 576 kts 68°
2026-05-04 18:47 51.96072 169.51800 35026 ft 576 kts 68°
2026-05-04 18:47 51.97800 169.64492 35026 ft 576 kts 68°
2026-05-04 18:48 51.99508 169.77176 35031 ft 572 kts 69°
2026-05-04 18:48 52.01183 169.89760 35027 ft 568 kts 69°
2026-05-04 18:49 52.02848 170.02320 35031 ft 568 kts 69°
2026-05-04 18:49 52.04487 170.14794 35029 ft 569 kts 69°
2026-05-04 18:50 52.06116 170.27337 35034 ft 561 kts 70°
2026-05-04 18:50 52.07701 170.39678 35035 ft 557 kts 69°
2026-05-04 18:51 52.09281 170.52016 35033 ft 557 kts 70°
2026-05-04 18:51 52.10848 170.64360 35039 ft 557 kts 70°
2026-05-04 18:52 52.12605 170.76484 35039 ft 550 kts 64°
2026-05-04 18:52 52.14854 170.88381 35038 ft 548 kts 63°
2026-05-04 18:53 52.17164 171.00211 35041 ft 548 kts 63°
2026-05-04 18:53 52.19473 171.12063 35067 ft 548 kts 65°
2026-05-04 18:54 52.21731 171.23818 35046 ft 539 kts 65°
2026-05-04 18:54 52.23956 171.35477 35046 ft 537 kts 66°
2026-05-04 18:55 52.25797 171.45163 35044 ft 537 kts 66°
2026-05-04 18:55 52.29101 171.62677 35065 ft 535 kts 68°
2026-05-04 18:56 52.31254 171.74213 35059 ft 528 kts 68°
2026-05-04 18:56 52.33385 171.85681 35059 ft 527 kts 68°
2026-05-04 18:57 52.35508 171.97168 35061 ft 528 kts 68°
2026-05-04 18:57 52.37618 172.08653 35074 ft 527 kts 69°
2026-05-04 18:58 52.39682 172.19989 35058 ft 519 kts 69°
2026-05-04 18:58 52.41736 172.31320 35062 ft 518 kts 69°
2026-05-04 18:59 52.43779 172.42651 35064 ft 519 kts 69°
2026-05-04 18:59 52.45813 172.54003 35091 ft 519 kts 69°
2026-05-04 19:00 52.47824 172.65319 35069 ft 514 kts 69°
2026-05-04 19:00 52.49810 172.76562 35070 ft 513 kts 69°
2026-05-04 19:01 52.51790 172.87827 35067 ft 513 kts 69°
2026-05-04 19:01 52.53757 172.99086 35067 ft 513 kts 69°
2026-05-04 19:02 52.55712 173.10355 35067 ft 511 kts 70°
2026-05-04 19:02 52.57635 173.21514 35076 ft 510 kts 70°
2026-05-04 19:03 52.59558 173.32737 35075 ft 510 kts 70°
2026-05-04 19:03 52.61472 173.43986 35078 ft 510 kts 71°
2026-05-04 19:04 52.63372 173.55220 35079 ft 508 kts 71°
2026-05-04 19:04 52.65248 173.66391 35080 ft 505 kts 71°
2026-05-04 19:05 52.67110 173.77547 35089 ft 505 kts 71°
2026-05-04 19:05 52.68962 173.88708 35096 ft 505 kts 71°
2026-05-04 19:06 52.70803 173.99882 35112 ft 505 kts 71°
2026-05-04 19:06 52.72609 174.11023 35099 ft 501 kts 72°
2026-05-04 19:07 52.74230 174.22195 35086 ft 501 kts 73°
2026-05-04 19:07 52.75798 174.33402 35086 ft 501 kts 73°
2026-05-04 19:08 52.77369 174.44536 35086 ft 501 kts 73°
2026-05-04 19:08 52.78952 174.55707 35086 ft 498 kts 73°
2026-05-04 19:09 52.80524 174.66850 35088 ft 496 kts 73°
2026-05-04 19:09 52.82079 174.77957 35093 ft 496 kts 74°
2026-05-04 19:10 52.83628 174.89102 35095 ft 497 kts 74°
2026-05-04 19:10 52.85163 175.00235 35097 ft 496 kts 74°
2026-05-04 19:11 52.86681 175.11345 35100 ft 493 kts 74°
2026-05-04 19:11 52.88172 175.22327 35098 ft 492 kts 74°
2026-05-04 19:12 52.90408 175.38944 35103 ft 492 kts 74°
2026-05-04 19:13 52.91883 175.50015 35099 ft 493 kts 75°
2026-05-04 19:13 52.93351 175.61118 35102 ft 493 kts 75°
2026-05-04 19:14 52.94811 175.72240 35117 ft 494 kts 75°
2026-05-04 19:14 52.96263 175.83398 35119 ft 495 kts 75°
2026-05-04 19:15 52.97704 175.94563 35130 ft 495 kts 75°
2026-05-04 19:15 52.99124 176.05647 35109 ft 493 kts 75°
2026-05-04 19:16 53.00537 176.16768 35115 ft 492 kts 75°
2026-05-04 19:16 53.01941 176.27895 35115 ft 492 kts 75°
2026-05-04 19:17 53.03334 176.39038 35116 ft 492 kts 75°
2026-05-04 19:17 53.04717 176.50182 35119 ft 492 kts 76°
2026-05-04 19:18 53.06086 176.61308 35118 ft 491 kts 76°
2026-05-04 19:18 53.07444 176.72437 35119 ft 490 kts 76°
2026-05-04 19:19 53.08782 176.83493 35121 ft 491 kts 76°
2026-05-04 19:19 53.10118 176.94618 35129 ft 491 kts 76°
2026-05-04 19:20 53.11442 177.05746 35123 ft 489 kts 76°
2026-05-04 19:20 53.12752 177.16851 35132 ft 489 kts 76°
2026-05-04 19:21 53.14051 177.27952 35131 ft 489 kts 76°
2026-05-04 19:21 53.15341 177.39066 35128 ft 489 kts 76°
2026-05-04 19:22 53.16620 177.50182 35135 ft 488 kts 76°
2026-05-04 19:22 53.17886 177.61292 35128 ft 487 kts 76°
2026-05-04 19:23 53.19140 177.72387 35131 ft 487 kts 76°
2026-05-04 19:23 53.20376 177.83421 35126 ft 487 kts 77°
2026-05-04 19:24 53.21617 177.94598 35137 ft 487 kts 77°
2026-05-04 19:24 53.22832 178.05638 35135 ft 486 kts 77°
2026-05-04 19:25 53.24043 178.16744 35139 ft 486 kts 77°
2026-05-04 19:25 53.25244 178.27856 35140 ft 487 kts 77°
2026-05-04 19:26 53.26438 178.39002 35141 ft 487 kts 77°
2026-05-04 19:26 53.27619 178.50136 35147 ft 487 kts 77°
2026-05-04 19:27 53.28791 178.61293 35138 ft 487 kts 77°
2026-05-04 19:27 53.29951 178.72441 35138 ft 487 kts 77°
2026-05-04 19:28 53.31094 178.83520 35139 ft 487 kts 78°
2026-05-04 19:28 53.32233 178.94676 35140 ft 487 kts 78°
2026-05-04 19:29 53.33362 179.05837 35139 ft 486 kts 78°
2026-05-04 19:29 53.34479 179.16991 35145 ft 486 kts 78°
2026-05-04 19:30 53.35585 179.28143 35153 ft 486 kts 78°
2026-05-04 19:30 53.36681 179.39307 35152 ft 486 kts 78°
2026-05-04 19:31 53.37766 179.50466 35163 ft 486 kts 78°
2026-05-04 19:31 53.38839 179.61620 35151 ft 485 kts 78°
2026-05-04 19:32 53.39901 179.72774 35151 ft 485 kts 78°
2026-05-04 19:32 53.40946 179.83858 35151 ft 485 kts 78°
2026-05-04 19:33 53.41988 179.95029 35150 ft 485 kts 78°
2026-05-04 19:33 53.43019 -179.93807 35153 ft 485 kts 78°
2026-05-04 19:34 53.44042 -179.82611 35151 ft 485 kts 78°
2026-05-04 19:34 53.45051 -179.71436 35157 ft 485 kts 78°
2026-05-04 19:35 53.46052 -179.60237 35156 ft 485 kts 79°
2026-05-04 19:35 53.47042 -179.49040 35156 ft 485 kts 79°
2026-05-04 19:36 53.48022 -179.37828 35156 ft 485 kts 79°
2026-05-04 19:36 53.48992 -179.26616 35157 ft 485 kts 79°
2026-05-04 19:37 53.49944 -179.15474 35156 ft 485 kts 79°
2026-05-04 19:37 53.50893 -179.04244 35157 ft 486 kts 79°
2026-05-04 19:38 53.51834 -178.92980 35163 ft 486 kts 79°
2026-05-04 19:38 53.52765 -178.81709 35157 ft 487 kts 79°
2026-05-04 19:39 53.53686 -178.70412 35155 ft 487 kts 79°
2026-05-04 19:39 53.54596 -178.59122 35162 ft 487 kts 79°
2026-05-04 19:40 53.55496 -178.47826 35163 ft 487 kts 79°
2026-05-04 19:40 53.56380 -178.36587 35163 ft 488 kts 80°
2026-05-04 19:41 53.57259 -178.25263 35159 ft 488 kts 80°
2026-05-04 19:41 53.58128 -178.13939 35160 ft 488 kts 80°
2026-05-04 19:42 53.58985 -178.02613 35156 ft 488 kts 80°
2026-05-04 19:42 53.59832 -177.91288 35170 ft 488 kts 80°
2026-05-04 19:43 53.60664 -177.80013 35155 ft 489 kts 80°
2026-05-04 19:43 53.61492 -177.68647 35154 ft 489 kts 80°
2026-05-04 19:44 53.62309 -177.57275 35158 ft 489 kts 80°
2026-05-04 19:44 53.63114 -177.45907 35157 ft 489 kts 80°
2026-05-04 19:45 53.63909 -177.34533 35161 ft 489 kts 81°
2026-05-04 19:45 53.64564 -177.25054 35156 ft 490 kts 81°
2026-05-04 19:46 53.65348 -177.13641 35158 ft 490 kts 81°
2026-05-04 19:46 53.66122 -177.02227 35154 ft 490 kts 81°
2026-05-04 19:47 53.66886 -176.90801 35152 ft 490 kts 81°
2026-05-04 19:47 53.67638 -176.79375 35154 ft 490 kts 81°
2026-05-04 19:48 53.68380 -176.67937 35153 ft 491 kts 81°
2026-05-04 19:48 53.69108 -176.56546 35152 ft 491 kts 81°
2026-05-04 19:49 53.69829 -176.45095 35159 ft 491 kts 81°
2026-05-04 19:49 53.70538 -176.33652 35154 ft 491 kts 81°
2026-05-04 19:50 53.71238 -176.22174 35153 ft 491 kts 81°
2026-05-04 19:50 53.71927 -176.10683 35154 ft 492 kts 81°
2026-05-04 19:51 53.72606 -175.99182 35153 ft 492 kts 81°
2026-05-04 19:51 53.73273 -175.87687 35145 ft 492 kts 82°
2026-05-04 19:52 53.73930 -175.76190 35151 ft 492 kts 82°
2026-05-04 19:52 53.74576 -175.64675 35144 ft 492 kts 82°
2026-05-04 19:53 53.75208 -175.53213 35143 ft 492 kts 82°
2026-05-04 19:53 53.75832 -175.41676 35151 ft 492 kts 82°
2026-05-04 19:54 53.76445 -175.30163 35160 ft 492 kts 82°
2026-05-04 19:54 53.77047 -175.18631 35135 ft 493 kts 82°
2026-05-04 19:55 53.77639 -175.07069 35136 ft 493 kts 82°
2026-05-04 19:55 53.78219 -174.95521 35137 ft 493 kts 82°
2026-05-04 19:56 53.78789 -174.83964 35138 ft 493 kts 82°
2026-05-04 19:56 53.79347 -174.72412 35142 ft 493 kts 83°
2026-05-04 19:57 53.79895 -174.60829 35136 ft 494 kts 83°
2026-05-04 19:57 53.80429 -174.49317 35134 ft 494 kts 83°
2026-05-04 19:58 53.80955 -174.37711 35137 ft 494 kts 83°
2026-05-04 19:58 53.81470 -174.26118 35137 ft 494 kts 83°
2026-05-04 19:59 53.81974 -174.14518 35137 ft 494 kts 83°
2026-05-04 19:59 53.82467 -174.02917 35135 ft 494 kts 83°
2026-05-04 20:00 53.82948 -173.91320 35133 ft 494 kts 83°
2026-05-04 20:00 53.83418 -173.79699 35136 ft 494 kts 83°
2026-05-04 20:01 53.83878 -173.68082 35138 ft 494 kts 83°
2026-05-04 20:01 53.84323 -173.56545 35127 ft 494 kts 83°
2026-05-04 20:02 53.84759 -173.44921 35126 ft 494 kts 84°
2026-05-04 20:02 53.85185 -173.33306 35128 ft 494 kts 84°
2026-05-04 20:03 53.85599 -173.21678 35125 ft 494 kts 84°
2026-05-04 20:03 53.86003 -173.10047 35132 ft 495 kts 84°
2026-05-04 20:04 53.86395 -172.98399 35121 ft 495 kts 84°
2026-05-04 20:04 53.86777 -172.86729 35114 ft 495 kts 84°
2026-05-04 20:05 53.87148 -172.75054 35111 ft 495 kts 84°
2026-05-04 20:05 53.87504 -172.63470 35123 ft 495 kts 84°
2026-05-04 20:06 53.87853 -172.51776 35121 ft 498 kts 84°
2026-05-04 20:06 53.88191 -172.40051 35108 ft 498 kts 84°
2026-05-04 20:07 53.88517 -172.28321 35108 ft 498 kts 84°
2026-05-04 20:07 53.88832 -172.16591 35108 ft 498 kts 85°
2026-05-04 20:08 53.89136 -172.04851 35110 ft 499 kts 85°
2026-05-04 20:08 53.89430 -171.93074 35103 ft 501 kts 85°
2026-05-04 20:09 53.89712 -171.81279 35104 ft 501 kts 85°
2026-05-04 20:09 53.89983 -171.69458 35098 ft 501 kts 85°
2026-05-04 20:10 53.90242 -171.57652 35112 ft 501 kts 85°
2026-05-04 20:10 53.90489 -171.45900 35094 ft 503 kts 85°
2026-05-04 20:11 53.90726 -171.34029 35087 ft 504 kts 85°
2026-05-04 20:11 53.90951 -171.22165 35086 ft 503 kts 85°
2026-05-04 20:12 53.91165 -171.10286 35079 ft 503 kts 85°
2026-05-04 20:12 53.91367 -170.98416 35087 ft 504 kts 86°
2026-05-04 20:13 53.91558 -170.86511 35077 ft 505 kts 86°
2026-05-04 20:13 53.91738 -170.74583 35077 ft 505 kts 86°
2026-05-04 20:14 53.91905 -170.62677 35069 ft 505 kts 86°
2026-05-04 20:14 53.92061 -170.50755 35078 ft 505 kts 86°
2026-05-04 20:15 53.92204 -170.38898 35066 ft 506 kts 86°
2026-05-04 20:15 53.92337 -170.26942 35062 ft 506 kts 86°
2026-05-04 20:16 53.92457 -170.15003 35062 ft 506 kts 86°
2026-05-04 20:16 53.92565 -170.03069 35052 ft 506 kts 86°
2026-05-04 20:17 53.92662 -169.91136 35059 ft 506 kts 86°
2026-05-04 20:17 53.92747 -169.79173 35050 ft 507 kts 87°
2026-05-04 20:18 53.92820 -169.67228 35052 ft 506 kts 87°
2026-05-04 20:18 53.92882 -169.55263 35050 ft 507 kts 87°
2026-05-04 20:19 53.92931 -169.43304 35062 ft 507 kts 87°
2026-05-04 20:19 53.92969 -169.31419 35050 ft 507 kts 87°
2026-05-04 20:20 53.92994 -169.19441 35037 ft 507 kts 88°
2026-05-04 20:20 53.93008 -169.07480 35050 ft 507 kts 88°
2026-05-04 20:21 53.93010 -168.95522 35037 ft 507 kts 88°
2026-05-04 20:21 53.92991 -168.77568 35031 ft 507 kts 88°
2026-05-04 20:22 53.92963 -168.65598 35028 ft 507 kts 88°
2026-05-04 20:22 53.92923 -168.53646 35032 ft 507 kts 88°
2026-05-04 20:23 53.92872 -168.41676 35027 ft 507 kts 88°
2026-05-04 20:23 53.92809 -168.29774 35035 ft 507 kts 88°
2026-05-04 20:24 53.92734 -168.17812 35018 ft 507 kts 88°
2026-05-04 20:24 53.92647 -168.05841 35011 ft 507 kts 88°
2026-05-04 20:25 53.92547 -167.93868 35001 ft 507 kts 89°
2026-05-04 20:25 53.92436 -167.81895 35005 ft 508 kts 89°
2026-05-04 20:26 53.92313 -167.69914 34996 ft 508 kts 89°
2026-05-04 20:26 53.92178 -167.57934 34996 ft 508 kts 89°
2026-05-04 20:27 53.92031 -167.45960 34985 ft 507 kts 89°
2026-05-04 20:27 53.91873 -167.33964 34984 ft 508 kts 89°
2026-05-04 20:28 53.91703 -167.22059 34982 ft 508 kts 90°
2026-05-04 20:28 53.91520 -167.10054 34971 ft 509 kts 90°
2026-05-04 20:29 53.91325 -166.98072 34975 ft 509 kts 90°
2026-05-04 20:29 53.91119 -166.86083 34992 ft 508 kts 90°
2026-05-04 20:30 53.90900 -166.74078 34998 ft 508 kts 90°
2026-05-04 20:30 53.90669 -166.62082 34997 ft 508 kts 90°
2026-05-04 20:31 53.90737 -166.50132 35000 ft 507 kts 85°
2026-05-04 20:31 53.91180 -166.38194 34999 ft 507 kts 84°
2026-05-04 20:32 53.91664 -166.26340 34993 ft 507 kts 84°
2026-05-04 20:32 53.92140 -166.14405 34968 ft 508 kts 85°
2026-05-04 20:33 53.92597 -166.02456 34955 ft 508 kts 85°
2026-05-04 20:33 53.93038 -165.90501 34919 ft 507 kts 85°
2026-05-04 20:34 53.93464 -165.78588 34902 ft 505 kts 85°
2026-05-04 20:34 53.93810 -165.68702 34904 ft 505 kts 85°
2026-05-04 20:35 53.94215 -165.56828 34893 ft 503 kts 86°
2026-05-04 20:35 53.94607 -165.44973 34893 ft 503 kts 86°
2026-05-04 20:36 53.94988 -165.33096 34876 ft 503 kts 86°
2026-05-04 20:36 53.95357 -165.21231 34877 ft 503 kts 86°
2026-05-04 20:37 53.95714 -165.09369 34864 ft 503 kts 86°
2026-05-04 20:37 53.96057 -164.97579 34862 ft 502 kts 86°
2026-05-04 20:38 53.96390 -164.85739 34849 ft 502 kts 86°
2026-05-04 20:38 53.96712 -164.73889 34849 ft 502 kts 87°
2026-05-04 20:39 53.97022 -164.62052 34835 ft 502 kts 87°
2026-05-04 20:39 53.97320 -164.50204 34833 ft 501 kts 87°
2026-05-04 20:40 53.97606 -164.38397 34824 ft 500 kts 87°
2026-05-04 20:40 53.97879 -164.26598 34826 ft 500 kts 87°
2026-05-04 20:41 53.98141 -164.14817 34812 ft 498 kts 88°
2026-05-04 20:41 53.98390 -164.03088 34814 ft 497 kts 88°
2026-05-04 20:42 53.98628 -163.91360 34796 ft 497 kts 88°
2026-05-04 20:42 53.98854 -163.79633 34796 ft 497 kts 88°
2026-05-04 20:43 53.99069 -163.67894 34797 ft 496 kts 88°
2026-05-04 20:43 53.99271 -163.56257 34784 ft 496 kts 88°
2026-05-04 20:44 53.99463 -163.44517 34784 ft 496 kts 88°
2026-05-04 20:44 53.99644 -163.32783 34775 ft 496 kts 88°
2026-05-04 20:45 53.99813 -163.21056 34768 ft 496 kts 88°
2026-05-04 20:45 53.99971 -163.09330 34757 ft 496 kts 88°
2026-05-04 20:46 54.00117 -162.97605 34757 ft 496 kts 88°
2026-05-04 20:46 54.00252 -162.85870 34746 ft 496 kts 89°
2026-05-04 20:47 54.00375 -162.74146 34749 ft 496 kts 89°
2026-05-04 20:47 54.00487 -162.62502 34733 ft 496 kts 89°
2026-05-04 20:48 54.00588 -162.50745 34728 ft 492 kts 89°
2026-05-04 20:48 54.00675 -162.39205 34716 ft 491 kts 89°
2026-05-04 20:49 54.00752 -162.27602 34716 ft 491 kts 89°
2026-05-04 20:49 54.00818 -162.15983 34699 ft 491 kts 89°
2026-05-04 20:50 54.00873 -162.04356 34700 ft 491 kts 89°
2026-05-04 20:50 54.00917 -161.92735 34676 ft 491 kts 89°
2026-05-04 20:51 54.00950 -161.81108 34675 ft 492 kts 89°
2026-05-04 20:51 54.00971 -161.69468 34671 ft 494 kts 89°
2026-05-04 20:52 54.00981 -161.57796 34657 ft 494 kts 89°
2026-05-04 20:52 54.00980 -161.46116 34654 ft 494 kts 89°
2026-05-04 20:53 54.00967 -161.34432 34644 ft 494 kts 89°
2026-05-04 20:53 54.00943 -161.22813 34637 ft 494 kts 89°
2026-05-04 20:54 54.00909 -161.11050 34631 ft 499 kts 89°
2026-05-04 20:54 54.00861 -160.99226 34632 ft 500 kts 89°
2026-05-04 20:55 54.00802 -160.87404 34620 ft 500 kts 90°
2026-05-04 20:55 54.00732 -160.75601 34619 ft 500 kts 90°
2026-05-04 20:56 54.00650 -160.63776 34602 ft 500 kts 90°
2026-05-04 20:56 54.00557 -160.51936 34600 ft 501 kts 90°
2026-05-04 20:57 54.00451 -160.40080 34586 ft 501 kts 90°
2026-05-04 20:57 54.00334 -160.28223 34586 ft 501 kts 90°
2026-05-04 20:58 54.00205 -160.16376 34579 ft 502 kts 90°
2026-05-04 20:58 54.00065 -160.04511 34578 ft 503 kts 90°
2026-05-04 20:59 54.00309 -159.92650 34561 ft 502 kts 86°
2026-05-04 20:59 54.00766 -159.80884 34548 ft 502 kts 85°
2026-05-04 21:00 54.01247 -159.69027 34550 ft 503 kts 85°
2026-05-04 21:00 54.01713 -159.57156 34546 ft 502 kts 85°
2026-05-04 21:01 54.02160 -159.45308 34525 ft 502 kts 85°
2026-05-04 21:01 54.02591 -159.33488 34513 ft 500 kts 86°
2026-05-04 21:02 54.03009 -159.21712 34521 ft 499 kts 86°